Location: Rancho Del Sol Observatory
(38.7214°N, 120.6350°W)
Time: 22:02:10
(UTC-08:00)

Courier 1B - Pass Details

Date: 19 January 2020
Orbit: 962 x 1209 km, 28.3° (Epoch: 27 February)

Event Time Altitude Azimuth Distance (km) Brightness Sun altitude
Exits shadow 04:06:57 21° 168° (SSE) 2,376 9.5 -36.9°
Maximum altitude 04:08:01 22° 157° (SSE) 2,351 9.6 -36.7°
Drops below altitude 10° 04:13:36 10° 111° (ESE) 3,133 10.8 -35.6°
Sets 04:17:13 0° 97° (E) 4,107 11.8 -34.9°
